Theta_e
325 326 326 327 327 328 328 328 329 329 329 330 331 329 330 329 327 326 321 325 326 330 328 324 323 322 320 316 315 311 305 301 303 303 305 307 308 312 315 316 320 322 319 323 332
324 325 326 326 326 327 327 327 328 328 328 328 330 330 330 327 326 322 330 330 330 330 322 318 316 318 315 314 315 310 304 303 307 307 304 305 306 310 312 314 316 319 324 327 331
323 324 324 325 326 326 327 326 327 327 327 328 329 328 328 327 318 318 332 332 332 329 324 322 320 316 312 313 312 310 304 306 307 307 309 306 306 309 311 310 315 316 320 326 326
322 322 323 324 325 325 326 326 326 326 327 327 327 327 325 324 302 320 330 333 332 326 323 320 317 312 309 307 311 306 310 309 309 311 310 308 310 304 309 313 313 318 321 326 324
320 321 322 322 324 325 325 325 325 325 326 326 326 326 322 313 312 321 328 332 327 322 319 317 313 311 306 307 308 307 308 309 310 311 311 311 309 308 306 311 313 313 320 324 326
318 319 320 321 322 323 324 325 325 325 325 326 326 324 317 304 321 322 326 327 322 320 318 318 314 314 309 307 306 308 307 308 308 309 310 307 310 306 309 308 310 314 315 321 325
317 318 318 319 321 322 323 324 325 324 324 325 326 323 313 310 321 323 327 324 322 320 316 319 318 313 311 307 310 309 304 307 308 308 306 307 304 305 313 310 309 310 314 318 322
315 316 317 318 320 321 321 323 323 322 323 324 323 318 307 321 326 322 323 320 321 321 319 320 319 313 310 310 307 304 304 298 304 307 307 304 297 309 312 309 311 313 313 315 319
314 314 316 317 318 319 320 321 321 321 322 322 315 313 304 322 314 321 322 316 319 318 317 316 316 310 308 303 300 301 295 297 299 305 306 304 299 306 310 311 311 313 312 313 316
312 313 314 315 317 318 319 320 320 320 318 316 314 304 309 307 315 318 320 319 315 314 310 309 308 305 305 301 292 295 295 296 296 299 301 302 301 305 308 307 308 309 310 311 312
311 312 313 314 316 318 318 314 306 303 307 298 301 302 306 313 318 314 318 314 314 310 302 305 298 296 300 302 301 298 297 295 298 300 299 299 299 302 305 306 306 308 311 312 313
311 312 312 313 315 314 315 306 306 304 297 301 304 305 310 312 305 310 317 307 304 298 303 299 295 301 303 302 300 297 295 295 298 299 299 299 298 302 304 305 306 306 307 308 310
309 310 312 312 313 311 306 308 308 308 294 296 302 303 306 309 303 304 311 307 299 298 298 294 298 302 300 298 297 297 295 295 294 298 300 297 295 298 303 304 306 307 309 309 309
308 310 311 311 306 305 302 308 308 306 285 288 294 301 305 306 299 310 312 305 298 294 298 297 301 299 298 296 299 293 299 298 295 294 289 297 287 296 299 300 303 305 307 308 309
308 309 310 311 303 299 304 308 309 302 277 290 293 307 306 300 301 303 310 305 295 295 292 289 295 297 296 297 300 295 300 297 297 295 291 292 287 293 297 296 300 303 306 308 310
307 308 309 307 304 306 309 310 301 283 277 286 294 295 296 298 298 302 302 306 305 297 296 294 300 299 298 300 300 299 297 295 295 293 285 291 290 291 295 297 299 303 305 307 308
307 308 307 306 298 308 309 301 280 277 287 284 288 294 293 293 295 297 295 295 293 287 287 293 294 299 299 295 298 298 292 285 283 282 283 290 289 292 298 299 300 302 304 307 308
307 307 306 305 307 306 300 288 278 284 285 290 291 292 288 292 292 294 293 290 296 293 289 286 285 295 299 297 293 294 292 286 278 280 284 287 285 291 299 301 303 303 304 305 305
307 303 301 303 306 304 292 279 282 284 289 288 289 286 286 291 291 291 291 291 294 296 289 287 286 296 299 299 298 293 289 295 286 281 283 287 291 295 298 298 300 301 302 303 305
299 297 297 304 305 299 285 282 284 289 291 291 284 288 283 287 288 289 288 294 294 297 299 293 285 292 295 299 298 295 297 287 288 279 278 284 286 288 293 296 299 299 300 302 301
296 290 298 305 302 291 281 284 285 290 293 290 287 286 287 286 288 288 289 292 296 296 297 294 291 287 293 291 290 290 290 291 290 288 281 280 285 295 296 298 297 297 299 300 302
294 283 300 302 286 285 283 285 290 289 292 290 292 290 288 289 288 288 288 291 298 298 291 295 290 285 288 292 295 295 292 291 285 282 286 284 286 296 298 296 296 298 301 302 301
288 289 300 298 281 284 285 286 291 290 290 290 288 291 292 289 285 289 290 292 297 297 293 294 288 282 283 287 291 290 292 293 292 288 285 282 287 294 297 298 300 299 300 301 302
289 284 290 292 290 287 285 285 286 291 288 289 289 292 290 288 290 287 288 290 294 298 297 296 288 286 283 285 289 286 290 292 291 285 286 287 289 294 296 297 298 299 300 301 302
291 285 287 281 283 287 289 287 285 285 288 291 290 290 289 285 286 287 289 289 294 296 296 293 286 286 286 287 289 289 289 291 289 290 286 289 289 293 294 295 297 298 300 300 301
288 287 290 286 288 287 288 286 287 285 286 286 289 290 290 287 288 286 289 290 289 293 292 292 285 287 284 287 287 285 288 290 291 291 291 291 289 296 297 298 296 297 299 299 300
292 295 292 288 287 287 287 288 287 288 288 291 292 290 289 290 293 294 295 295 294 292 291 290 286 284 281 285 285 281 285 287 289 291 291 286 292 296 294 295 296 297 298 299 299
Wind_Speed
21 20 19 18 16 15 14 13 12 11 12 11 11 9 9 10 6 5 9 2 1 2 2 2 0 2 1 2 2 1 6 8 9 7 4 0 5 3 0 3 4 4 2 4 13
21 21 21 20 18 17 16 14 12 11 12 11 10 8 13 10 5 11 4 6 4 1 1 3 3 0 2 2 2 5 5 7 2 4 5 5 4 1 5 7 7 6 4 4 14
18 21 22 21 20 18 17 15 13 12 11 12 10 8 13 7 9 11 13 11 8 4 2 0 2 2 5 2 3 3 8 4 3 3 2 4 4 2 5 7 10 10 9 10 14
17 20 22 23 21 20 19 17 15 13 12 11 11 10 11 6 11 1 6 18 11 7 5 4 4 6 6 7 3 7 5 4 2 3 2 1 6 5 7 6 4 6 5 14 15
16 18 21 23 22 22 21 20 17 14 12 11 14 18 8 11 15 3 1 9 13 11 11 9 9 6 9 5 4 7 4 4 2 7 6 5 8 8 11 10 4 2 7 13 15
18 15 18 22 23 22 22 20 18 16 14 11 13 18 10 21 6 5 7 12 10 14 12 12 8 5 4 4 9 3 4 5 5 6 5 6 9 3 3 3 6 6 8 10 14
19 18 17 20 23 24 23 22 19 17 14 12 13 13 11 18 3 8 14 10 11 12 12 10 6 8 7 5 3 1 7 7 8 4 6 4 11 13 15 6 8 9 8 8 11
19 19 15 19 23 25 25 21 21 19 15 12 9 7 9 6 6 9 7 6 8 6 5 6 5 5 3 5 4 4 5 10 5 7 5 6 18 7 10 11 14 14 10 9 11
19 18 18 13 22 23 24 23 21 18 16 11 8 11 7 9 7 8 7 9 11 6 3 4 4 5 5 8 6 8 14 10 4 5 1 11 13 6 6 12 15 14 12 10 10
20 19 18 15 17 22 23 22 19 14 10 7 5 7 9 14 11 9 6 13 7 12 4 4 5 9 10 13 20 10 9 6 7 2 3 9 16 16 8 8 11 9 10 11 13
22 21 20 18 13 22 20 11 9 10 16 19 10 13 6 9 11 16 8 9 9 14 17 10 8 18 27 19 14 9 12 11 3 1 4 10 13 20 13 15 17 16 18 18 17
25 23 22 21 17 12 14 18 23 7 11 17 5 21 5 13 8 15 15 15 11 16 19 7 23 25 18 13 15 10 12 9 2 2 4 9 15 23 19 19 19 19 20 20 19
22 24 23 22 19 10 10 21 14 16 4 18 9 17 9 11 10 16 20 11 4 17 21 18 14 15 15 15 18 17 16 9 6 6 11 11 21 21 20 15 18 18 20 20 20
24 25 25 24 17 10 13 10 17 9 5 12 14 9 13 8 6 11 16 10 5 7 12 16 11 22 18 20 17 20 12 8 4 7 8 2 10 15 16 14 15 15 14 16 17
23 24 25 27 8 16 9 10 10 4 14 16 18 10 15 17 15 7 5 7 14 10 6 3 5 17 23 22 17 11 11 9 8 10 5 12 7 9 5 11 14 16 16 16 15
22 23 26 17 14 12 16 9 4 9 17 13 17 18 21 14 8 7 6 5 5 8 15 5 3 2 6 9 11 13 9 6 2 3 8 12 14 12 12 8 4 7 12 13 11
24 23 21 12 18 14 7 11 10 12 14 13 22 26 28 18 17 13 17 15 9 10 7 8 8 8 9 9 7 11 10 5 6 5 9 3 9 16 16 10 12 12 15 14 9
25 23 19 13 14 16 6 7 17 12 13 10 22 25 24 24 16 16 17 14 17 8 5 7 7 15 9 13 9 16 7 4 5 5 4 2 11 6 10 13 10 11 15 15 12
24 12 14 15 15 11 12 12 7 18 13 21 28 30 15 24 13 13 18 20 20 17 10 8 6 6 13 6 14 8 12 6 2 3 6 8 16 18 18 17 14 16 9 9 9
13 13 16 17 16 10 7 12 5 14 10 25 18 19 21 31 20 19 21 21 22 23 14 10 6 4 4 7 6 6 11 6 4 5 7 9 13 13 9 15 7 10 6 4 6
12 11 11 17 12 9 7 9 4 10 23 17 18 19 20 32 24 24 24 10 25 24 14 10 5 2 7 7 10 5 7 2 3 4 4 5 8 3 10 9 5 5 6 6 11
12 9 14 16 11 4 11 3 11 18 7 3 7 9 24 28 19 22 21 12 22 20 19 5 3 4 2 3 2 11 10 9 6 7 4 4 13 4 8 5 4 5 10 9 8
12 5 14 16 12 4 6 9 15 25 10 11 7 8 19 21 11 14 10 3 17 22 21 12 5 6 5 1 2 10 14 13 6 2 9 5 6 4 7 8 15 18 18 16 13
9 9 10 11 4 5 13 11 18 9 4 5 8 20 25 18 6 12 11 3 8 19 12 11 4 7 10 3 12 9 18 18 16 7 11 21 21 9 13 20 20 19 21 21 18
4 4 7 13 8 13 12 12 21 11 3 5 11 29 24 12 5 13 10 7 9 14 9 8 7 4 2 7 8 12 16 22 24 20 12 27 21 15 9 14 16 15 16 18 18
8 7 2 15 16 14 14 21 26 12 7 6 16 24 20 17 9 19 12 11 8 5 9 3 3 8 4 3 4 1 9 16 22 19 24 23 34 17 22 12 13 18 18 18 20
3 3 13 11 20 17 9 22 20 12 8 8 26 20 11 13 12 13 8 9 14 16 12 9 6 5 5 1 5 7 19 17 13 16 19 21 25 20 20 18 16 18 17 18 20
Wind_Direction
230 222 221 225 224 225 223 229 230 214 210 217 220 205 169 159 153 198 223 151 116 25 310 304 262 27 357 84 9 135 227 242 265 261 283 134 230 144 43 199 216 207 285 75 144
234 226 218 219 223 221 222 220 220 225 210 212 213 211 163 167 195 233 199 171 157 53 250 263 235 69 193 134 173 237 252 216 231 295 296 315 276 242 211 197 214 217 194 147 157
233 230 224 216 218 219 217 219 214 217 219 206 207 186 148 164 249 246 200 199 164 156 88 348 135 204 209 206 188 181 248 199 181 258 288 313 275 290 245 226 231 220 194 167 177
228 229 226 223 215 215 217 212 211 211 215 220 193 152 149 183 234 18 237 190 154 157 156 158 187 190 207 206 175 231 227 231 203 182 239 264 316 270 240 259 357 247 187 169 186
232 231 228 224 219 213 213 217 207 205 205 220 189 141 159 214 226 135 224 161 161 164 194 193 205 183 213 187 175 230 225 207 248 275 261 270 262 280 273 267 254 300 187 193 197
227 229 233 228 224 214 211 210 207 204 200 203 190 161 195 225 224 167 139 155 188 186 186 196 226 213 200 196 213 189 221 259 266 255 274 256 254 238 252 318 237 237 230 214 210
232 225 226 226 224 219 212 209 203 198 197 199 187 179 208 217 123 181 156 184 182 201 182 205 189 189 160 176 173 195 256 244 226 225 243 233 247 234 246 243 265 251 253 242 222
234 230 221 220 219 219 213 204 208 195 190 192 202 175 229 195 139 149 174 134 163 188 203 170 181 146 232 122 120 221 244 245 140 197 202 217 264 239 232 229 248 256 253 245 237
230 229 224 223 216 215 211 207 207 195 187 183 200 202 226 140 188 145 171 168 159 150 172 153 192 187 154 194 202 207 245 232 255 196 199 212 272 280 243 235 250 253 254 255 260
229 224 221 226 220 211 206 200 201 180 172 164 221 166 203 203 178 161 144 168 154 148 127 189 191 201 205 200 221 214 235 238 243 110 196 248 260 261 239 271 263 268 260 261 258
226 219 218 220 216 209 200 186 181 180 181 190 195 214 197 140 148 187 145 149 146 180 196 185 191 212 210 213 236 264 230 241 215 105 270 260 269 274 279 272 268 262 264 261 259
221 218 212 209 204 187 212 195 200 138 165 205 168 202 157 179 160 181 164 180 188 204 212 185 221 215 219 201 204 212 222 225 230 202 273 288 279 282 272 266 264 262 260 259 259
228 218 209 207 203 192 228 210 151 156 143 200 197 192 177 180 201 174 182 158 188 194 196 210 237 212 178 196 204 214 223 202 259 292 265 298 277 264 264 250 259 255 257 263 260
219 216 208 199 200 201 223 215 174 132 165 169 194 194 184 174 208 159 186 148 158 180 198 221 206 176 186 202 205 219 216 227 273 289 268 6 292 270 269 260 250 255 251 253 257
219 215 206 197 178 200 195 197 228 146 216 167 177 150 162 192 127 169 178 190 184 170 126 173 173 185 191 202 193 221 175 194 230 252 298 240 261 261 241 256 263 261 259 258 257
214 211 201 197 197 203 189 154 148 214 188 163 153 175 165 183 159 120 159 210 137 157 186 163 186 277 186 152 176 135 115 96 145 215 251 248 221 258 255 256 226 262 272 271 274
207 205 194 193 201 184 141 168 190 195 136 148 165 170 175 171 166 170 185 175 170 148 192 141 180 159 161 131 133 174 151 177 190 202 252 59 234 256 278 262 248 259 278 287 287
203 204 203 201 199 176 161 193 217 152 176 170 161 169 181 155 182 178 180 194 205 180 130 158 177 176 174 201 166 182 182 202 215 215 272 128 243 249 270 281 277 266 263 283 308
195 198 203 203 179 165 181 239 177 150 153 151 146 164 165 177 152 166 194 197 190 185 165 170 201 213 186 163 157 173 206 245 304 101 266 242 260 277 268 278 259 267 272 295 300
189 190 207 188 177 179 200 224 140 159 166 146 146 178 168 178 172 180 181 196 198 193 196 166 147 235 144 137 51 197 145 148 176 209 244 255 271 249 280 281 349 2 21 13 1
181 189 180 168 173 188 201 171 187 186 156 185 150 162 171 173 184 185 186 177 188 187 185 170 147 184 157 192 156 136 175 116 132 221 250 287 260 253 251 271 43 36 350 9 329
175 182 162 157 190 168 192 200 161 178 170 143 133 127 165 168 170 184 193 190 186 172 187 167 138 149 110 8 270 179 190 171 189 177 237 296 258 187 321 93 129 317 318 322 306
169 145 161 158 192 170 114 159 168 159 165 150 127 150 160 161 148 180 184 108 173 175 173 167 161 143 141 83 22 201 206 200 147 87 211 218 253 58 135 345 334 329 328 331 326
146 165 155 171 195 153 151 163 150 150 72 89 116 125 139 155 89 167 149 139 192 183 133 124 162 218 212 178 141 177 198 201 197 197 232 234 249 241 291 316 322 330 325 314 310
144 180 140 165 182 175 181 156 143 143 83 133 135 151 146 144 130 161 157 123 165 157 139 160 188 165 113 133 153 192 194 200 209 221 211 250 258 250 275 281 288 304 293 295 302
133 156 72 137 157 143 185 171 154 144 145 148 155 155 158 162 164 161 138 162 158 161 150 150 151 165 195 130 96 239 222 216 220 226 245 268 270 269 268 273 281 285 277 295 295
100 188 127 140 163 168 187 159 146 129 21 149 140 135 136 144 125 134 128 130 158 165 168 161 134 158 201 159 92 266 228 219 214 218 233 244 260 273 281 284 281 293 307 296 307